www.pogodaiklimat.ru

Погода и климат >> Архив погоды >> Норвегия >> Fagernes


ПОГОДА в Fagernes

  • Прогноз погоды в Fagernes
  • Монитор погоды в Fagernes
  • Климат города

АРХИВ ПОГОДЫ в Fagernes

Время (UTC), дата Ветер
(напр.,м/с)
 
Видим.   Явления Облачность Т
(С)
Тd
(С)
f
(%)
Тe
(С)
Тes
(С)
Комфортность P
(гПа)
Po
(гПа)
Тmin
(С)
Tmax
(С)
R
(мм)
S
(см)
01 17.02 штиль 0-1
{1}
н/о н/о -7.1 -8.2 92 -8 -8 1015.5 969.3
02 17.02 штиль 0
{2}
н/о н/о -6.6 -7.4 94 -8 -8 1015.7 969.6
03 17.02 штиль 0 н/о н/о -8.3 -9.4 92 -9 -9 1016.2 969.8
04 17.02 штиль 0 н/о н/о -9.9 -11.2 90 -10 -10 1016.8 970.1
05 17.02 штиль 0
{1}
н/о н/о -10.2 -11.5 90 -11 -11 1017.2 970.4
06 17.02 штиль 0
{2}
65 км 1/1 1500 м
[Sc diur, vesp]
-11.1 -12.5 89 -11 -11 1017.5 970.5 -11.2 -2.7
07 17.02 штиль 0
{1}
н/о н/о -10.8 -12.0 91 -11 -11 1018.0 971.1
08 17.02 штиль 0
{1}
н/о н/о -9.8 -10.9 92 -10 -10 1018.2 971.4
09 17.02 штиль 0
{1}
н/о н/о -8.5 -9.7 91 -9 -9 1018.3 971.8
10 17.02 штиль 0-1
{1}
н/о н/о -7.7 -10.0 84 -8 -8 1018.6 972.1
11 17.02 штиль 0 н/о н/о -5.5 -7.9 83 -6 -6 1018.4 972.4
12 17.02 штиль 0-1
{2}
65 км 1/0
[]
-2.6 -5.4 81 -4 -1 1017.6 972.1
13 17.02 штиль 0-1
{1}
н/о н/о +0.1 -5.3 67 -1 -1 1017.1 972.0
14 17.02 З 2-3
{3}
н/о н/о +3.2 -1.9 69 +1 +1 1016.8 972.2
15 17.02 З 1-2
{3}
30 км 9/0
[Ac As Ci fib]
+3.8 -2.4 64 +3 +3 1017.3 972.8
16 17.02 штиль 0
{3}
н/о н/о +3.5 -2.6 64 +3 +3 1017.5 972.9
17 17.02 ЮЗ 1 н/о н/о +2.5 -3.2 66 +1 +1 1018.5 973.7
18 17.02 штиль 0-2
{3}
н/о н/о -0.9 -2.8 87 -2 -2 1019.8 974.4 -11.7 +4.3
19 17.02 штиль 0-1
{1}
н/о н/о -3.1 -4.6 89 -4 -4 1020.4 974.7
20 17.02 З 1-2
{2}
н/о н/о -6.1 -7.7 88 -9 -9 1021.4 975.1
21 17.02 штиль 0
{2}
н/о н/о -4.3 -5.1 94 -5 -5 1021.4 975.4
22 17.02 штиль 0 н/о н/о -6.4 -7.4 93 -7 -7 1021.9 975.6
23 17.02 штиль 0
{1}
н/о н/о -6.3 -7.0 95 -7 -7 1022.0 975.6
00 18.02 штиль 0
{2}
н/о н/о -7.2 -8.0 94 -8 -8 1021.5 975.0
01 18.02 штиль 0
{1}
н/о н/о -7.1 -7.9 94 -8 -8 1021.4 974.9
02 18.02 З 1-2
{2}
н/о н/о -6.3 -7.4 92 -9 -9 1020.9 974.6
03 18.02 штиль 0
{2}
30 км 4/0
[Ac lent]
-6.0 -7.0 93 -7 -7 1020.0 973.8
04 18.02 штиль 0
{1}
н/о н/о -5.4 -6.5 92 -6 -6 1019.1 973.0
05 18.02 СВ 2 н/о н/о -4.6 -6.2 89 -9 -9 1018.4 972.5
06 18.02 штиль 0-1
{3}
н/о н/о -4.0 -5.6 89 -5 -5 1017.8 972.0 -8.7 -0.9
07 18.02 штиль 0-1
{1}
н/о н/о -4.1 -5.5 90 -5 -5 1017.1 971.4
08 18.02 штиль 0
{2}
н/о н/о -3.9 -5.7 87 -5 -5 1016.5 970.8
09 18.02 З 1-2
{2}
н/о н/о -3.5 -5.4 87 -6 -6 1015.6 970.0
10 18.02 штиль 0-1
{2}
н/о н/о -2.1 -4.6 83 -3 -3 1014.4 969.1
11 18.02 штиль 0-1
{2}
н/о н/о -1.2 -4.2 80 -2 -2 1013.6 968.4
12 18.02 штиль 0
{2}
н/о н/о +0.2 -4.8 69 -1 -1 1012.3 967.5
13 18.02 штиль 0
{1}
н/о н/о +1.2 -3.6 70 0 0 1010.8 966.1
14 18.02 СВ 1-2
{2}
н/о н/о +2.2 -3.3 67 +1 +1 1009.5 965.1
15 18.02 СВ 1-2
{2}
н/о н/о +1.4 -3.4 70 -0 -0 1008.6 964.1
16 18.02 СВ 1 н/о н/о +0.7 -3.6 73 -1 -1 1007.6 963.1
17 18.02 В 2-2
{2}
н/о н/о +0.1 -3.6 76 -3 -3 1006.8 962.2
18 18.02 СВ 2-3
{4}
55 км сильная метель 10/0
[As trans]
+0.4 -3.3 76 -3 -3 1006.0 961.4 -4.5 +2.6
19 18.02 В 1-3
{3}
н/о н/о +0.1 -3.1 79 -2 -2 1005.2 960.6
20 18.02 С 1 н/о н/о -0.3 -3.1 81 -2 -2 1004.4 959.9
21 18.02 штиль 0-1
{1}
н/о н/о -1.0 -3.4 84 -2 -2 1003.9 959.2
22 18.02 СВ 1-2
{2}
н/о н/о -1.0 -3.2 85 -3 -3 1003.5 958.9
23 18.02 СВ 1-2
{3}
н/о н/о -1.0 -3.1 86 -3 -3 1003.2 958.6
00 19.02 штиль 0
{3}
55 км 10/0
[As trans]
-2.1 -3.9 87 -3 -3 1003.1 958.2
01 19.02 СВ 2-2
{2}
н/о н/о -1.7 -3.4 88 -6 -6 1003.1 958.3
02 19.02 СВ 1-2
{3}
н/о н/о -3.1 -4.6 89 -5 -5 1003.0 958.0
03 19.02 штиль 0 30 км 10/0 1500 м
[As trans]
-3.6 -4.5 93 -5 -5 1003.2 958.1
04 19.02 штиль 0
{1}
н/о н/о -5.2 -6.0 94 -6 -6 1003.3 958.0
05 19.02 СВ 2-3
{3}
н/о н/о -3.7 -4.3 96 -8 -8 1002.6 957.6
06 19.02 ЮЗ 1-1
{3}
н/о н/о -5.7 -6.8 92 -8 -8 1002.9 957.5 -6.4 +0.8
07 19.02 З 1-2
{2}
н/о н/о -7.7 -8.9 91 -10 -10 1003.4 957.6
08 19.02 штиль 0-1
{2}
н/о н/о -5.6 -6.7 92 -7 -7 1003.7 958.2
09 19.02 штиль 0
{3}
65 км 9/0
[As trans]
-5.6 -6.9 91 -7 -6 1003.3 957.9
10 19.02 штиль 0
{1}
н/о н/о -3.4 -4.5 92 -5 -5 1002.9 957.9
11 19.02 штиль 0 н/о н/о -3.3 -5.2 87 -4 -4 1002.4 957.4
12 19.02 штиль 0-1
{3}
65 км 8/5 1500 м
[Cu Sc Ac lent]
-1.1 -3.9 81 -2 -1 1001.4 956.8
13 19.02 З 2-3
{3}
н/о н/о +7.2 -1.4 54 +6 +6 999.6 956.3
14 19.02 З 3-6
{6}
н/о н/о +8.6 -2.3 46 +7 +7 999.1 956.1
15 19.02 З 3-5
{5}
>70 км 3/0
[Ac lent]
+8.0 -2.3 48 +6 +6 998.9 955.8
16 19.02 З 1-3
{5}
н/о н/о +7.4 -2.0 51 +7 +7 999.0 955.8
17 19.02 З 1-3
{3}
н/о н/о +6.8 -1.3 56 +6 +6 998.8 955.6
18 19.02 З 1-2
{6}
>70 км смерч (торнадо) 3/0
[Ac lent]
+6.0 -1.4 59 +5 +5 998.6 955.3 -7.9 +8.6
19 19.02 штиль 0-1
{1}
н/о н/о +4.8 -1.2 65 +4 +4 997.8 954.3
20 19.02 СЗ 1-3
{4}
н/о н/о +7.1 -1.8 53 +7 +7 996.4 953.3
21 19.02 штиль 0
{3}
н/о н/о +4.4 -1.4 66 +4 +4 996.3 952.8
22 19.02 З 1-2
{2}
н/о н/о +1.7 -1.4 80 0 0 995.6 951.7
23 19.02 штиль 0 н/о н/о +1.9 -1.5 78 +1 +1 994.7 950.9
00 20.02 СВ 1-2
{4}
55 км 5/3 1500 м
[St As trans]
+3.6 -1.3 70 +2 +2 992.9 949.4
01 20.02 штиль 0
{2}
н/о н/о +1.8 -1.8 77 +1 +1 991.6 947.9
02 20.02 штиль 0-1
{2}
н/о н/о +0.7 -1.8 83 -0 -0 990.8 947.0
03 20.02 штиль 0
{2}
55 км 5/3 1500 м
[St As trans]
+1.4 -1.5 81 0 0 990.1 946.4
04 20.02 Ю 1-2
{2}
н/о н/о -0.7 -2.8 86 -3 -3 990.1 946.1
05 20.02 СВ 2-3
{3}
н/о н/о +2.8 -1.3 74 -0 -0 988.9 945.5
06 20.02 штиль 0
{3}
>70 км 3/0
[Ac cuf]
-0.8 -2.3 90 -2 -2 989.4 945.4 -1.3
07 20.02 штиль 0-1
{1}
н/о н/о -1.2 -2.3 92 -2 -2 989.4 945.3
08 20.02 штиль 0-1
{2}
н/о н/о -1.2 -2.5 91 -2 -2 989.0 944.9
09 20.02 штиль 0
{2}
65 км 9/9 300 м
[Sc diur, vesp Ac As]
+2.7 -1.6 73 +2 +2 988.1 944.7
10 20.02 З 1-2
{2}
н/о н/о +6.9 -0.8 58 +6 +6 986.7 944.0
11 20.02 ЮЗ 3-5
{6}
н/о н/о +7.3 -1.4 54 +5 +5 986.3 943.7
12 20.02 ЮЗ 5-7
{7}
65 км 5/5 200 м
[Sc Ac cuf Cs]
+8.2 -1.6 50 +5 +6 986.2 943.7
13 20.02 ЮЗ 4-6
{6}
н/о н/о +8.0 -1.5 51 +5 +5 986.0 943.5
14 20.02 З 4-5
{6}
н/о н/о +6.7 -1.7 55 +4 +4 985.8 943.1
15 20.02 З 3-5
{6}
65 км 9/0
[As op]
+7.1 -1.8 53 +5 +5 985.3 942.7
16 20.02 З 3-4
{4}
н/о н/о +6.7 -1.9 54 +4 +4 985.2 942.5
17 20.02 З 1 н/о н/о +5.4 -1.9 59 +5 +5 985.6 942.7
18 20.02 З 2-4
{6}
н/о н/о +6.1 -2.2 55 +4 +4 985.6 942.8 -2.2 +8.8
19 20.02 З 1-2
{4}
н/о н/о +3.9 -2.5 63 +3 +3 986.3 943.2
20 20.02 штиль 0
{2}
н/о н/о +1.3 -2.8 74 0 0 986.6 943.1
21 20.02 СВ 1-2
{2}
н/о н/о +0.8 -2.6 78 -1 -1 986.8 943.1
22 20.02 штиль 0
{2}
н/о н/о +0.5 -2.2 82 -1 -1 986.6 943.0
23 20.02 С 1-2
{2}
н/о н/о +1.5 -0.1 89 -0 -0 985.9 942.4
00 21.02 штиль 0-1
{4}
>70 км 10/0
[]
+0.6 -1.3 87 -1 -1 985.8 942.2
01 21.02 З 1-1
{1}
н/о н/о +0.7 -0.6 91 -1 -1 986.3 942.6
02 21.02 штиль 0-1
{2}
н/о н/о +1.0 -0.4 90 -0 -0 986.0 942.4
03 21.02 штиль 0
{1}
20 км слабый дождь 10/0
[As trans]
+0.3 -1.0 91 -1 -1 986.3 942.6
04 21.02 штиль 0-1
{2}
н/о н/о +1.9 -3.2 69 +1 +1 986.7 943.3
05 21.02 штиль 0-2
{2}
н/о н/о +2.9 -3.6 62 +2 +2 987.6 944.2
06 21.02 З 3-5
{5}
20 км слабый дождь 10/0
[As trans]
+3.5 -4.4 56 0 0 988.0 944.7 -0.1 +6.2
07 21.02 штиль 0-1
{3}
н/о н/о +0.4 -3.3 76 -1 -1 989.8 946.0
08 21.02 С 2-3
{3}
н/о н/о +1.1 -3.0 74 -2 -2 990.9 947.1
09 21.02 СВ 2 20 км {дождь} 9/8 1000 м
[Sc Ac lent]
+0.9 -2.7 77 -2 -2 992.4 948.5
10 21.02 СВ 2-3
{3}
н/о н/о +1.8 -2.5 73 -1 -1 993.3 949.5
11 21.02 СВ 2-3
{3}
н/о н/о +2.6 -3.1 66 -0 -0 993.8 950.1
12 21.02 СВ 1-1
{3}
>70 км {дождь} 5/5 600 м
[Sc]
+2.5 -3.0 67 +1 +3 994.2 950.5
13 21.02 В 1-3
{3}
н/о н/о +4.5 -3.5 56 +4 +4 994.1 950.7
14 21.02 З 3-5
{7}
н/о н/о +5.0 -6.2 44 +2 +2 994.4 951.1
15 21.02 ЮЗ 2-4
{5}
>70 км 5/1 600 м
[Cu Sc Ci fib]
+4.4 -6.2 46 +2 +3 994.5 951.0
16 21.02 штиль 0-2
{3}
н/о н/о +2.2 -5.2 58 +2 +2 994.7 950.9
17 21.02 штиль 0-1
{2}
н/о н/о +2.3 -6.5 52 +2 +2 994.3 950.6
18 21.02 СЗ 1-2
{7}
н/о н/о +1.3 -6.5 56 0 0 994.6 950.7 -0.1 +5.7
19 21.02 штиль 0-1
{1}
н/о н/о +0.8 -6.3 59 0 0 993.8 949.9
20 21.02 С 1-2
{2}
н/о н/о +1.3 -6.7 55 0 0 992.5 948.7
21 21.02 В 2-3
{3}
н/о н/о +0.7 -5.7 62 -2 -2 991.6 947.8
22 21.02 В 2-3
{3}
н/о н/о +0.7 -5.3 64 -2 -2 990.0 946.2
23 21.02 С 1-2
{3}
н/о н/о -0.8 -2.3 90 -3 -3 988.6 944.6
00 22.02 В 2-4
{4}
1700 м сильный снег 10/6 300 м
[Frnb As op]
-0.8 -2.5 88 -5 -5 986.0 942.2
01 22.02 СВ 2-4
{5}
н/о н/о -1.0 -2.7 88 -5 -5 983.3 939.5
02 22.02 В 1-3
{4}
н/о н/о -0.8 -2.6 88 -3 -3 980.8 937.2
03 22.02 СВ 1-2
{3}
4500 м слабый снег 10/10 1000 м
[Frnb]
-1.1 -2.4 91 -3 -3 978.6 935.0
04 22.02 СВ 1 н/о н/о -1.0 -2.3 91 -3 -3 977.2 933.7
05 22.02 СВ 2-3
{4}
н/о н/о -1.0 -2.1 92 -5 -5 975.6 932.2
06 22.02 С 1-2
{5}
10 км слабый снег 10/10 1000 м
[Frnb]
-1.1 -2.4 91 -3 -3 974.8 931.4 -1.1 +1.6
07 22.02 штиль 0 н/о н/о -2.6 -3.7 92 -4 -4 974.8 931.2
08 22.02 штиль 0-1
{1}
н/о н/о -2.1 -3.0 94 -3 -3 974.2 930.6
09 22.02 СВ 1-2
{2}
н/о н/о -0.3 -2.7 84 -2 -2 973.1 929.9
10 22.02 СВ 1-2
{2}
н/о н/о +0.6 -3.1 76 -1 -1 971.7 928.7
11 22.02 СВ 1-2
{3}
н/о н/о +1.8 -2.9 71 0 0 970.5 927.7
12 22.02 С 1-2
{3}
55 км 8/0
[]
+2.1 -3.2 68 +1 +2 970.0 927.3
13 22.02 С 1-2
{2}
н/о н/о +2.4 -2.7 69 +1 +1 969.7 927.0
14 22.02 С 1-2
{2}
н/о н/о +3.6 -2.5 64 +3 +3 968.9 926.5
15 22.02 ЮЗ 1-1
{2}
>70 км 8/0
[]
+1.0 -2.4 78 -1 -0 969.3 926.5
16 22.02 штиль 0
{1}
н/о н/о +0.7 -1.7 84 -0 -0 969.8 926.9
17 22.02 З 1-2
{2}
н/о н/о +0.2 -1.2 90 -2 -2 970.4 927.4
18 22.02 штиль 0
{2}
н/о н/о 0.0 -1.0 93 -1 -1 971.2 928.2 -3.6 +3.7
19 22.02 З 1-2
{2}
н/о н/о -0.2 -1.1 94 -2 -2 972.4 929.2
20 22.02 З 1-2
{2}
н/о н/о -0.6 -1.9 91 -3 -3 973.8 930.5
21 22.02 штиль 0-1
{2}
н/о н/о -2.4 -4.2 87 -4 -4 975.6 932.0
22 22.02 штиль 0-1
{1}
н/о н/о -2.8 -3.7 94 -4 -4 977.6 933.8
23 22.02 штиль 0-1
{2}
н/о н/о -3.1 -4.1 93 -4 -4 979.1 935.2
00 23.02 штиль 0-1
{2}
>70 км ясно -4.6 -5.8 91 -6 -6 980.8 936.6
01 23.02 штиль 0
{1}
н/о н/о -6.3 -7.3 93 -7 -7 982.3 937.7
02 23.02 штиль 0-1
{2}
н/о н/о -5.0 -5.8 94 -6 -6 983.2 938.8
03 23.02 штиль 0-1
{2}
>70 км ясно -4.0 -5.1 92 -5 -5 984.3 940.0
04 23.02 штиль 0-1
{2}
н/о н/о -2.7 -5.9 79 -4 -4 986.0 941.8
05 23.02 З 1 н/о н/о -2.3 -9.9 56 -4 -4 987.8 943.6
06 23.02 З 1-2
{4}
>70 км ясно -3.6 -11.1 56 -5 -5 988.5 944.1 -6.5 0.0
07 23.02 штиль 0-1
{1}
н/о н/о -5.6 -10.3 69 -6 -6 989.7 944.9
08 23.02 штиль 0-1
{2}
н/о н/о -6.4 -11.3 68 -7 -7 990.6 945.6
09 23.02 штиль 0
{1}
>70 км ясно -5.4 -10.0 70 -6 -4 990.6 945.8
10 23.02 штиль 0-1
{1}
н/о н/о -6.8 -11.7 68 -7 -7 991.2 946.1
11 23.02 штиль 0 н/о н/о -4.4 -12.1 55 -5 -5 990.8 946.2
12 23.02 штиль 0
{2}
н/о н/о -1.4 -10.4 50 -2 -2 990.0 945.9
13 23.02 штиль 0 н/о н/о 0.0 -13.5 35 -0 -0 989.3 945.4
14 23.02 ЮЗ 3-5
{5}
н/о н/о -1.8 -12.9 42 -6 -6 989.1 945.0
15 23.02 З 2-3
{5}
>70 км 3/0
[Ac As Ci fib]
-1.7 -12.3 44 -5 -4 988.9 944.7
16 23.02 З 2 н/о н/о -3.2 -12.3 49 -7 -7 989.4 945.0
17 23.02 З 2-2
{3}
н/о н/о -3.5 -11.9 52 -7 -7 990.0 945.5
18 23.02 З 2-2
{5}
>70 км ясно -5.3 -12.1 59 -9 -9 990.7 945.9 -7.6 +0.3
19 23.02 штиль 0-1
{3}
н/о н/о -6.5 -11.9 65 -7 -7 991.2 946.2
20 23.02 штиль 0 н/о н/о -9.1 -13.6 70 -9 -9 992.2 946.8
21 23.02 штиль 0 н/о н/о -9.5 -12.3 80 -10 -10 993.1 947.6
22 23.02 штиль 0-1
{1}
н/о н/о -10.6 -13.1 82 -11 -11 994.2 948.4
23 23.02 штиль 0 н/о н/о -11.3 -13.5 84 -11 -11 995.1 949.1
00 24.02 штиль 0
{3}
н/о н/о -11.7 -14.6 79 -12 -12 995.7 949.7

 

Местоположение метеостанции Fagernes (Норвегия): широта 60.99 долгота 9.24 высота над уровнем моря 365 м.

В архиве по умолчанию представлена погода в Fagernes за последнюю неделю. Архивные данные за месяц целиком и за предыдущие месяцы, начиная с января 2011 года, Вы можете получить, выбрав интересующий диапазон дат из раскрывающегося списка и нажав кнопку "Ввод!".

Внимание! Время в таблицах - всемирное. Для получения местного времени необходимо прибавить поправку, которая в Fagernes равна 1 ч.

Смотрите также архив погоды в соседних городах и на ближайших метеорологических станциях:

Погода в Fagernes Lufthavn (Норвегия) (4 км)
Погода в Loken i Volbu (Норвегия) (17 км)
Погода в Beitostolen II (Норвегия) (34 км)
Погода в Hemsedal II (Норвегия) (38 км)
Погода в Hemsedal-Hollekolten (Норвегия) (41 км)
Погода в Vest-Torpa II (Норвегия) (43 км)
Погода в Nesbyen-Todokk (Норвегия) (47 км)
Погода в Skabu (Норвегия) (61 км)
Погода в Filefjell-Kyrkjestolane (Норвегия) (64 км)
Погода в Lillehammer (Норвегия) (68 км)

Пояснения к столбцам:

Ветер - указаны скорость ветра в м/с - средняя за 10 мин, порывы в срок и между сроками (в фигурных скобках) и направление, откуда дует ветер: С - северный, СВ - северо-восточный, В - восточный, ЮВ - юго-восточный, Ю - южный, ЮЗ - юго-западный, З - западный, СЗ - северо-западный.
Видимость - горизонтальная дальность видимости в метрах или километрах. При видимости от 1 до 10 км при отсутствии осадков обычно наблюдается дымка, при ухудшении видимости до 1 км и менее - туман. В сухую погоду видимость может ухудшаться дымом, пылью или мглою.
Явления - указаны атмосферные явления, наблюдавшиеся в срок или в последний час перед сроком; фигурными скобками обозначены явления, наблюдавшиеся между сроками (за 1-3 часа до срока); квадратными скобками обозначены град или гололедные отложения с указанием их диаметра в мм.
Облачность - указаны через наклонную черту общая и нижняя облачность в баллах и высота нижней границы облаков в метрах; квадратными скобками обозначены формы облаков: Ci - перистые, Cs - перисто-слоистые, Cc - перисто-кучевые, Ac - высококучевые, As - высокослоистые, Sc - слоисто-кучевые, Ns - слоисто-дождевые, Cu - кучевые, Cb - кучево-дождевые. Подробнее классификацию облаков см. в Атласе облаков (PDF).
T - Температура воздуха - температура, измеренная на высоте 2 м над землей.
Td - Температура точки росы - температура, при понижении до которой содержащийся в воздухе водяной пар достигнет насыщения.
f - Относительная влажность воздуха - влажноcть воздуха, измеренная на высоте 2 м над землей.
Te - Эффективная температура - температура, которую ощущает одетый по сезону человек в тени. Характеристика душности погоды. При расчете учитывается влияние влажности воздуха и скорости ветра на теплоощущения человека.
Tes - Эффективная температура на солнце - температура, которую ощущает человек, с поправкой на солнечный нагрев. Характеристика знойности погоды. Зависит от высоты солнца над горизонтом, облачности и скорости ветра. Ночью, в пасмурную погоду, а также при ветре 12 м/с и более поправка равна нулю.
P - Атмосферное давление - приведенное к уровню моря атмосферное давление.
Po - Атмосферное давление - измеренное на уровне метеостанции атмосферное давление.
Tmin - Минимальная температура - минимум температуры воздуха на высоте 2 м над землей.
Tmax - Максимальная температура - максимум температуры воздуха на высоте 2 м над землей.
R - Количество осадков - Количество выпавших осадков, мм. При наведении курсора мыши на число - период времени, за который выпало указанное количество осадков.
S - Снежный покров - Высота снежного покрова, см. При наведении курсора мыши на число - состояние снежного покрова и степень покрытия местности в баллах.